When you browse on this site, cookies collect data to enhance your experience and personalize the content and advertising you see.
Visit our Privacy Policy to learn more. By continuing to use the site, you agree to this use of cookies and data.
EN

Hourly Weather Wilnsdorf

Today, 12 July, Sunday

Time Temperature Precipitation Wind Pressure Humidity
00:00 +9°C° 0 mm 1 mps 732 mmHg 91%
01:00 +8°C° 0 mm 0 mps 732 mmHg 92%
02:00 +8°C° 0 mm 0 mps 732 mmHg 93%
03:00 +7°C° 0 mm 0 mps 732 mmHg 93%
04:00 +7°C° 0 mm 0 mps 732 mmHg 93%
05:00 +9°C° 0 mm 0 mps 733 mmHg 87%
06:00 +11°C° 0 mm 0 mps 733 mmHg 81%
07:00 +12°C° 0 mm 0 mps 734 mmHg 75%
08:00 +15°C° 0 mm 1 mps 734 mmHg 67%
09:00 +19°C° 0 mm 1 mps 734 mmHg 59%
10:00 +21°C° 0 mm 1 mps 734 mmHg 50%
11:00 +21°C° 0 mm 1 mps 734 mmHg 47%
12:00 +22°C° 0 mm 1 mps 734 mmHg 45%
13:00 +23°C° 0 mm 1 mps 734 mmHg 42%
14:00 +22°C° 0 mm 1 mps 734 mmHg 42%
15:00 +21°C° 0 mm 2 mps 733 mmHg 42%
16:00 +21°C° 0 mm 2 mps 733 mmHg 42%
17:00 +20°C° 0 mm 2 mps 733 mmHg 49%
18:00 +19°C° 0 mm 2 mps 733 mmHg 56%
19:00 +18°C° 0 mm 2 mps 733 mmHg 63%
20:00 +16°C° 0 mm 2 mps 733 mmHg 70%
21:00 +14°C° 0 mm 2 mps 733 mmHg 76%
22:00 +12°C° 0 mm 2 mps 732 mmHg 83%
23:00 +12°C° 0 mm 2 mps 732 mmHg 86%

Tomorrow, 13 July, Monday

Time Temperature Precipitation Wind Pressure Humidity
00:00 +10°C° 0 mm 2 mps 732 mmHg 88%
01:00 +11°C° 0 mm 1 mps 732 mmHg 91%
02:00 +10°C° 0 mm 1 mps 732 mmHg 92%
03:00 +10°C° 0 mm 1 mps 732 mmHg 93%
04:00 +9°C° 0 mm 1 mps 731 mmHg 94%
05:00 +11°C° 0 mm 1 mps 732 mmHg 87%
06:00 +13°C° 0 mm 1 mps 732 mmHg 80%
07:00 +14°C° 0 mm 0 mps 732 mmHg 73%
08:00 +16°C° 0 mm 0 mps 732 mmHg 65%
09:00 +18°C° 0 mm 0 mps 732 mmHg 57%
10:00 +21°C° 0 mm 0 mps 732 mmHg 49%
11:00 +24°C° 0 mm 1 mps 732 mmHg 45%
12:00 +24°C° 0 mm 1 mps 731 mmHg 41%
13:00 +25°C° 0 mm 1 mps 731 mmHg 37%
14:00 +25°C° 0 mm 1 mps 731 mmHg 39%
15:00 +24°C° 0 mm 1 mps 730 mmHg 40%
16:00 +24°C° 0 mm 2 mps 729 mmHg 41%
17:00 +23°C° 0 mm 1 mps 729 mmHg 48%
18:00 +22°C° 0 mm 1 mps 729 mmHg 56%
19:00 +21°C° 0 mm 1 mps 729 mmHg 63%
20:00 +19°C° 0 mm 1 mps 728 mmHg 69%
21:00 +15°C° 0 mm 1 mps 728 mmHg 75%
22:00 +13°C° 0 mm 1 mps 728 mmHg 81%
23:00 +13°C° 0 mm 1 mps 728 mmHg 83%

Day after tomorrow, 14 July, Tuesday

Time Temperature Precipitation Wind Pressure Humidity
00:00 +12°C° 0 mm 1 mps 728 mmHg 84%
01:00 +12°C° 0 mm 1 mps 728 mmHg 85%
02:00 +10°C° 0 mm 0 mps 727 mmHg 86%
03:00 +10°C° 0 mm 0 mps 727 mmHg 86%
04:00 +10°C° 0 mm 0 mps 726 mmHg 87%
05:00 +11°C° 0 mm 0 mps 726 mmHg 82%
06:00 +13°C° 0 mm 0 mps 727 mmHg 77%
07:00 +14°C° 0 mm 0 mps 727 mmHg 73%
08:00 +18°C° 0 mm 1 mps 727 mmHg 65%
09:00 +20°C° 0 mm 1 mps 727 mmHg 58%
10:00 +22°C° 0 mm 1 mps 727 mmHg 51%
11:00 +22°C° 0 mm 1 mps 726 mmHg 49%
12:00 +21°C° 0 mm 2 mps 726 mmHg 47%
13:00 +23°C° 0 mm 2 mps 726 mmHg 45%
14:00 +23°C° 0 mm 2 mps 726 mmHg 45%
15:00 +23°C° 0 mm 2 mps 725 mmHg 45%
16:00 +24°C° 0 mm 2 mps 725 mmHg 45%
17:00 +21°C° 0.2 mm 2 mps 725 mmHg 57%
18:00 +19°C° 0.2 mm 2 mps 725 mmHg 69%
19:00 +18°C° 0.2 mm 2 mps 724 mmHg 80%
20:00 +17°C° 0.1 mm 2 mps 724 mmHg 84%
21:00 +16°C° 0.1 mm 1 mps 724 mmHg 88%
22:00 +13°C° 0.1 mm 0 mps 724 mmHg 91%
23:00 +14°C° 0.1 mm 1 mps 724 mmHg 92%

15 July, Wednesday

Time Temperature Precipitation Wind Pressure Humidity
00:00 +14°C° 0.1 mm 1 mps 723 mmHg 92%
01:00 +14°C° 0.1 mm 1 mps 723 mmHg 92%
02:00 +14°C° 0.4 mm 1 mps 723 mmHg 93%
03:00 +14°C° 0.4 mm 1 mps 723 mmHg 94%
04:00 +14°C° 0.4 mm 1 mps 722 mmHg 95%
05:00 +14°C° 0.4 mm 1 mps 722 mmHg 96%
06:00 +14°C° 0.4 mm 2 mps 722 mmHg 96%
07:00 +15°C° 0.4 mm 2 mps 722 mmHg 97%
08:00 +15°C° 0.6 mm 2 mps 723 mmHg 96%
09:00 +15°C° 0.6 mm 2 mps 723 mmHg 96%
10:00 +14°C° 0.6 mm 3 mps 723 mmHg 95%
11:00 +16°C° 0.9 mm 3 mps 723 mmHg 91%
12:00 +17°C° 0.9 mm 4 mps 723 mmHg 88%
13:00 +17°C° 0.9 mm 5 mps 723 mmHg 84%
14:00 +17°C° 0.5 mm 4 mps 723 mmHg 85%
15:00 +15°C° 0.5 mm 4 mps 723 mmHg 86%
16:00 +15°C° 0.5 mm 4 mps 723 mmHg 86%
17:00 +14°C° 0.2 mm 3 mps 723 mmHg 88%
18:00 +14°C° 0.2 mm 2 mps 724 mmHg 90%
19:00 +14°C° 0.2 mm 2 mps 724 mmHg 92%
20:00 +13°C° 0 mm 2 mps 724 mmHg 93%
21:00 +12°C° 0 mm 1 mps 725 mmHg 94%
22:00 +12°C° 0 mm 1 mps 725 mmHg 96%
23:00 +11°C° 0 mm 1 mps 725 mmHg 96%

16 July, Thursday

Time Temperature Precipitation Wind Pressure Humidity
00:00 +11°C° 0 mm 1 mps 726 mmHg 96%
01:00 +10°C° 0 mm 1 mps 726 mmHg 97%
02:00 +10°C° 0 mm 1 mps 726 mmHg 97%
03:00 +9°C° 0 mm 1 mps 726 mmHg 97%
04:00 +8°C° 0 mm 0 mps 726 mmHg 97%
05:00 +9°C° 0 mm 0 mps 726 mmHg 95%
06:00 +10°C° 0 mm 0 mps 726 mmHg 93%
07:00 +11°C° 0 mm 0 mps 727 mmHg 92%
08:00 +14°C° 0 mm 1 mps 727 mmHg 80%
09:00 +16°C° 0 mm 1 mps 727 mmHg 68%
10:00 +18°C° 0 mm 2 mps 727 mmHg 57%
11:00 +18°C° 0.1 mm 2 mps 727 mmHg 55%
12:00 +19°C° 0.1 mm 2 mps 727 mmHg 53%
13:00 +19°C° 0.1 mm 3 mps 727 mmHg 51%
14:00 +20°C° 0 mm 3 mps 727 mmHg 51%
15:00 +20°C° 0 mm 3 mps 727 mmHg 50%
16:00 +20°C° 0 mm 3 mps 727 mmHg 50%
17:00 +19°C° 0 mm 2 mps 727 mmHg 55%
18:00 +19°C° 0 mm 2 mps 727 mmHg 60%
19:00 +18°C° 0 mm 2 mps 727 mmHg 65%
20:00 +16°C° 0 mm 1 mps 727 mmHg 74%
21:00 +14°C° 0 mm 1 mps 727 mmHg 82%
22:00 +12°C° 0 mm 1 mps 727 mmHg 90%
23:00 +11°C° 0 mm 1 mps 727 mmHg 92%

17 July, Friday

Time Temperature Precipitation Wind Pressure Humidity
00:00 +11°C° 0 mm 1 mps 727 mmHg 94%
01:00 +9°C° 0 mm 0 mps 727 mmHg 96%
02:00 +9°C° 0 mm 0 mps 728 mmHg 96%
03:00 +9°C° 0 mm 0 mps 728 mmHg 96%
04:00 +9°C° 0 mm 0 mps 728 mmHg 96%
05:00 +11°C° 0 mm 1 mps 728 mmHg 93%
06:00 +12°C° 0 mm 1 mps 728 mmHg 89%
07:00 +14°C° 0 mm 1 mps 729 mmHg 85%
08:00 +15°C° 0 mm 1 mps 729 mmHg 75%
09:00 +17°C° 0 mm 2 mps 729 mmHg 65%
10:00 +18°C° 0 mm 2 mps 729 mmHg 55%
11:00 +19°C° 0 mm 2 mps 729 mmHg 51%
12:00 +20°C° 0 mm 2 mps 729 mmHg 48%
13:00 +21°C° 0 mm 2 mps 729 mmHg 44%
14:00 +23°C° 0 mm 2 mps 729 mmHg 45%
15:00 +23°C° 0 mm 2 mps 729 mmHg 45%
16:00 +23°C° 0 mm 2 mps 729 mmHg 45%
17:00 +21°C° 0 mm 2 mps 729 mmHg 52%
18:00 +20°C° 0 mm 2 mps 729 mmHg 59%
19:00 +20°C° 0 mm 1 mps 728 mmHg 66%
20:00 +18°C° 0 mm 1 mps 729 mmHg 73%
21:00 +15°C° 0 mm 1 mps 729 mmHg 81%
22:00 +13°C° 0 mm 1 mps 729 mmHg 88%
23:00 +12°C° 0 mm 1 mps 729 mmHg 89%
Show more